Location: Central Coast
(33.3208°S, 151.2336°E)
Time: 02:12:44
(UTC+11:00)

N. Korean satellite - Pass Details

Date: 09 October 2017
Orbit: 459 x 517 km, 97.2° (Epoch: 22 October)

Event Time Altitude Azimuth Distance (km) Brightness Sun altitude
Rises 20:15:51 0° 182° (S) 2,672 10.6 -15.6°
Reaches altitude 10° 20:18:09 10° 193° (SSW) 1,776 9.8 -16.0°
Maximum altitude 20:21:29 29° 253° (WSW) 984 8.9 -16.7°
Drops below altitude 10° 20:24:47 10° 314° (NW) 1,746 9.7 -17.3°
Sets 20:27:02 0° 325° (NW) 2,619 10.5 -17.8°
